Change the Weather History Date:

Monday, October 7, 2013

  Actual Average Record
Temperature  
Mean Temperature 58 °F 56 °F  
Max Temperature 71 °F 69 °F 86 °F (1980)
Min Temperature 44 °F 44 °F 24 °F (1990)
Degree Days  
Heating Degree Days 7 9  
Month to date heating degree days 92 56  
Since 1 July heating degree days 183 177  
Cooling Degree Days 0 1  
Month to date cooling degree days 0 7  
Year to date cooling degree days 1320 941  
Growing Degree Days 8 (Base 50)    
Moisture  
Dew Point 30 °F    
Average Humidity 41    
Maximum Humidity 62    
Minimum Humidity 20    
Precipitation  
Precipitation 0.00 in 0.02 in 1.18 in (1913)
Month to date precipitation 0.02 0.14  
Year to date precipitation 6.68 8.22  
Snow  
Snow 0.00 in 0.00 in 0.00 in (2006)
Month to date snowfall 0.0 0.0  
Since 1 July snowfall 0.0 0.0  
Snow Depth 0.00 in    
Sea Level Pressure  
Sea Level Pressure 29.93 in    
Wind  
Wind Speed 8 mph (East)    
Max Wind Speed 17 mph    
Max Gust Speed 22 mph    
Visibility 10 miles    
Events      
T = Trace of Precipitation, MM = Missing Value Source: NWS Daily Summary

Daily Weather History Graph

Daily Weather History Graph

Search for Another Location

Airport or City:

Trip Planner

Search our weather history database for the weather conditions in past years. The results will help you decide how hot, cold, wet, or windy it might be!

Date:

Astronomy

Oct. 07, 2013 Rise Set
Actual Time 7:49 AM MDT 7:14 PM MDT
Civil Twilight 7:21 AM MDT 7:43 PM MDT
Nautical Twilight 6:48 AM MDT 8:16 PM MDT
Astronomical Twilight 6:14 AM MDT 8:49 PM MDT
Moon 10:50 AM MDT (10/7) 8:57 PM MDT (10/7)
Length of Visible Light 12h 22m
Length of Day
11h 24m
Waxing Crescent, 9% of the Moon is Illuminated
Oct 7
Waxing Crescent
Oct 11
First Quarter
Oct 18
Full
Oct 26
Last Quarter
Nov 3
New

Hourly Weather History & Observations

Time (MDT) Temp. Windchill Dew Point Humidity Pressure Visibility Wind Dir Wind Speed Gust Speed Precip Events Conditions
12:53 AM 52.0 °F - 28.9 °F 41% 30.00 in 10.0 mi SE 5.8 mph - N/A   Clear
1:53 AM 54.0 °F - 28.9 °F 38% 29.96 in 10.0 mi ESE 12.7 mph - N/A   Clear
2:53 AM 53.1 °F - 26.1 °F 35% 29.97 in 10.0 mi South 8.1 mph - N/A   Clear
3:53 AM 50.0 °F - 32.0 °F 50% 29.95 in 10.0 mi SE 6.9 mph - N/A   Clear
4:53 AM 53.1 °F - 28.9 °F 40% 29.94 in 10.0 mi SE 4.6 mph - N/A   Clear
5:53 AM 50.0 °F - 30.0 °F 46% 29.96 in 10.0 mi SE 6.9 mph - N/A   Clear
6:53 AM 46.9 °F - 30.9 °F 54% 29.97 in 10.0 mi SE 4.6 mph - N/A   Clear
7:53 AM 44.1 °F 40.1 °F 32.0 °F 63% 29.99 in 10.0 mi SSE 6.9 mph - N/A   Clear
8:53 AM 46.9 °F - 32.0 °F 56% 30.00 in 10.0 mi SE 9.2 mph - N/A   Clear
9:53 AM 55.0 °F - 32.0 °F 42% 29.99 in 10.0 mi SE 5.8 mph - N/A   Clear
10:53 AM 60.1 °F - 30.9 °F 33% 29.98 in 10.0 mi ESE 4.6 mph - N/A   Clear
11:53 AM 64.0 °F - 30.9 °F 29% 29.96 in 10.0 mi SSE 3.5 mph - N/A   Clear
12:53 PM 68.0 °F - 28.9 °F 23% 29.95 in 10.0 mi East 3.5 mph - N/A   Clear
1:53 PM 70.0 °F - 28.9 °F 22% 29.91 in 10.0 mi NW 3.5 mph - N/A   Clear
2:53 PM 71.1 °F - 28.9 °F 21% 29.88 in 10.0 mi North 8.1 mph - N/A   Clear
3:53 PM 70.0 °F - 28.9 °F 22% 29.87 in 10.0 mi North 9.2 mph - N/A   Clear
4:53 PM 70.0 °F - 27.0 °F 20% 29.85 in 10.0 mi North 8.1 mph - N/A   Clear
5:53 PM 68.0 °F - 27.0 °F 21% 29.84 in 10.0 mi North 4.6 mph - N/A   Clear
6:53 PM 66.0 °F - 28.9 °F 25% 29.85 in 8.0 mi NNW 13.8 mph - N/A   Clear
7:53 PM 62.1 °F - 30.0 °F 30% 29.87 in 10.0 mi North 6.9 mph - N/A   Clear
8:53 PM 61.0 °F - 28.9 °F 30% 29.87 in 10.0 mi Calm Calm - N/A   Clear
9:53 PM 57.9 °F - 33.1 °F 39% 29.88 in 7.0 mi WNW 17.3 mph 21.9 mph N/A   Clear
10:53 PM 54.0 °F - 36.0 °F 51% 29.90 in 6.0 mi WNW 11.5 mph - N/A   Haze
11:53 PM 52.0 °F - 37.0 °F 57% 29.91 in 7.0 mi NW 13.8 mph - N/A   Clear